Hourly Weather Al Kufah

Today, 5 March, Friday

Time Temperature Precipitation Wind Pressure Humidity
00:00 +17°C° 0 mm 7 mps 756 mmHg 31%
01:00 +17°C° 0 mm 7 mps 756 mmHg 34%
02:00 +16°C° 0 mm 8 mps 757 mmHg 38%
03:00 +16°C° 0 mm 8 mps 757 mmHg 42%
04:00 +15°C° 0 mm 8 mps 757 mmHg 46%
05:00 +15°C° 0 mm 8 mps 758 mmHg 50%
06:00 +15°C° 0 mm 7 mps 758 mmHg 54%
07:00 +16°C° 0 mm 8 mps 759 mmHg 53%
08:00 +16°C° 0 mm 9 mps 759 mmHg 52%
09:00 +17°C° 0 mm 10 mps 760 mmHg 49%
10:00 +18°C° 0 mm 10 mps 761 mmHg 45%
11:00 +19°C° 0 mm 9 mps 761 mmHg 41%
12:00 +21°C° 0 mm 9 mps 761 mmHg 36%
13:00 +21°C° 0 mm 9 mps 761 mmHg 33%
14:00 +22°C° 0 mm 8 mps 761 mmHg 29%
15:00 +22°C° 0 mm 8 mps 761 mmHg 26%
16:00 +22°C° 0 mm 7 mps 761 mmHg 26%
17:00 +21°C° 0 mm 6 mps 761 mmHg 25%
18:00 +21°C° 0 mm 5 mps 762 mmHg 25%
19:00 +20°C° 0 mm 4 mps 762 mmHg 27%
20:00 +19°C° 0 mm 3 mps 763 mmHg 28%
21:00 +18°C° 0 mm 2 mps 763 mmHg 30%
22:00 +18°C° 0 mm 2 mps 763 mmHg 31%
23:00 +17°C° 0 mm 2 mps 764 mmHg 33%

Tomorrow, 6 March, Saturday

Time Temperature Precipitation Wind Pressure Humidity
00:00 +17°C° 0 mm 2 mps 764 mmHg 34%
01:00 +17°C° 0 mm 2 mps 764 mmHg 35%
02:00 +16°C° 0 mm 2 mps 764 mmHg 36%
03:00 +16°C° 0 mm 3 mps 764 mmHg 36%
04:00 +16°C° 0 mm 3 mps 764 mmHg 38%
05:00 +14°C° 0 mm 3 mps 764 mmHg 39%
06:00 +14°C° 0 mm 3 mps 765 mmHg 40%
07:00 +15°C° 0 mm 4 mps 765 mmHg 39%
08:00 +17°C° 0 mm 4 mps 765 mmHg 39%
09:00 +17°C° 0 mm 5 mps 765 mmHg 38%
10:00 +20°C° 0 mm 5 mps 765 mmHg 33%
11:00 +21°C° 0 mm 5 mps 765 mmHg 28%
12:00 +22°C° 0 mm 5 mps 765 mmHg 24%
13:00 +23°C° 0 mm 6 mps 764 mmHg 23%
14:00 +23°C° 0 mm 6 mps 763 mmHg 22%
15:00 +23°C° 0 mm 6 mps 763 mmHg 21%
16:00 +22°C° 0 mm 6 mps 763 mmHg 23%
17:00 +22°C° 0 mm 5 mps 762 mmHg 25%
18:00 +21°C° 0 mm 5 mps 762 mmHg 27%
19:00 +20°C° 0 mm 4 mps 763 mmHg 28%
20:00 +19°C° 0 mm 4 mps 763 mmHg 30%
21:00 +19°C° 0 mm 3 mps 763 mmHg 31%
22:00 +18°C° 0 mm 3 mps 763 mmHg 33%
23:00 +17°C° 0 mm 2 mps 763 mmHg 34%

Day after tomorrow, 7 March, Sunday

Time Temperature Precipitation Wind Pressure Humidity
00:00 +17°C° 0 mm 2 mps 762 mmHg 36%
01:00 +16°C° 0 mm 2 mps 762 mmHg 37%
02:00 +16°C° 0 mm 1 mps 761 mmHg 37%
03:00 +15°C° 0 mm 1 mps 761 mmHg 38%
04:00 +15°C° 0 mm 1 mps 761 mmHg 39%
05:00 +15°C° 0 mm 1 mps 761 mmHg 39%
06:00 +14°C° 0 mm 1 mps 761 mmHg 40%
07:00 +16°C° 0 mm 1 mps 761 mmHg 36%
08:00 +17°C° 0 mm 0 mps 762 mmHg 32%
09:00 +18°C° 0 mm 0 mps 762 mmHg 27%
10:00 +22°C° 0 mm 1 mps 761 mmHg 25%
11:00 +23°C° 0 mm 1 mps 761 mmHg 22%
12:00 +24°C° 0 mm 2 mps 760 mmHg 20%
13:00 +25°C° 0 mm 2 mps 760 mmHg 19%
14:00 +25°C° 0 mm 2 mps 759 mmHg 17%
15:00 +26°C° 0 mm 2 mps 758 mmHg 16%
16:00 +25°C° 0 mm 2 mps 758 mmHg 18%
17:00 +24°C° 0 mm 1 mps 758 mmHg 20%
18:00 +24°C° 0 mm 1 mps 757 mmHg 22%
19:00 +23°C° 0 mm 1 mps 757 mmHg 22%
20:00 +23°C° 0 mm 2 mps 758 mmHg 21%
21:00 +21°C° 0 mm 3 mps 758 mmHg 21%
22:00 +21°C° 0 mm 3 mps 757 mmHg 22%
23:00 +20°C° 0 mm 3 mps 757 mmHg 23%

8 March, Monday

Time Temperature Precipitation Wind Pressure Humidity
00:00 +20°C° 0 mm 4 mps 757 mmHg 24%
01:00 +19°C° 0 mm 4 mps 757 mmHg 25%
02:00 +19°C° 0 mm 3 mps 757 mmHg 26%
03:00 +18°C° 0 mm 3 mps 756 mmHg 27%
04:00 +18°C° 0 mm 3 mps 756 mmHg 27%
05:00 +17°C° 0 mm 3 mps 756 mmHg 28%
06:00 +17°C° 0 mm 3 mps 756 mmHg 28%
07:00 +18°C° 0 mm 3 mps 757 mmHg 26%
08:00 +20°C° 0 mm 3 mps 757 mmHg 23%
09:00 +21°C° 0 mm 3 mps 757 mmHg 21%
10:00 +24°C° 0 mm 3 mps 757 mmHg 19%
11:00 +26°C° 0 mm 4 mps 756 mmHg 17%
12:00 +27°C° 0 mm 4 mps 756 mmHg 16%
13:00 +28°C° 0 mm 5 mps 755 mmHg 15%
14:00 +29°C° 0 mm 5 mps 754 mmHg 14%
15:00 +30°C° 0 mm 5 mps 754 mmHg 14%
16:00 +29°C° 0 mm 5 mps 754 mmHg 14%
17:00 +28°C° 0 mm 5 mps 754 mmHg 14%
18:00 +27°C° 0 mm 5 mps 754 mmHg 14%
19:00 +25°C° 0 mm 5 mps 755 mmHg 17%
20:00 +23°C° 0 mm 5 mps 755 mmHg 20%
21:00 +22°C° 0 mm 5 mps 756 mmHg 24%
22:00 +21°C° 0 mm 5 mps 756 mmHg 25%
23:00 +20°C° 0 mm 5 mps 756 mmHg 27%

9 March, Tuesday

Time Temperature Precipitation Wind Pressure Humidity
00:00 +19°C° 0 mm 4 mps 756 mmHg 28%
01:00 +19°C° 0 mm 4 mps 756 mmHg 31%
02:00 +18°C° 0 mm 4 mps 757 mmHg 35%
03:00 +17°C° 0 mm 3 mps 757 mmHg 38%
04:00 +17°C° 0 mm 3 mps 757 mmHg 40%
05:00 +17°C° 0 mm 3 mps 758 mmHg 41%
06:00 +16°C° 0 mm 2 mps 758 mmHg 43%
07:00 +17°C° 0 mm 2 mps 759 mmHg 40%
08:00 +19°C° 0 mm 3 mps 759 mmHg 37%
09:00 +20°C° 0 mm 3 mps 760 mmHg 34%
10:00 +21°C° 0 mm 3 mps 760 mmHg 32%
11:00 +22°C° 0 mm 3 mps 760 mmHg 30%
12:00 +24°C° 0 mm 3 mps 760 mmHg 27%
13:00 +25°C° 0 mm 3 mps 759 mmHg 26%
14:00 +25°C° 0 mm 4 mps 759 mmHg 25%
15:00 +26°C° 0 mm 4 mps 758 mmHg 24%
16:00 +25°C° 0 mm 4 mps 758 mmHg 25%
17:00 +24°C° 0 mm 3 mps 759 mmHg 27%
18:00 +24°C° 0 mm 3 mps 759 mmHg 29%
19:00 +22°C° 0 mm 3 mps 759 mmHg 30%
20:00 +21°C° 0 mm 3 mps 760 mmHg 32%
21:00 +21°C° 0 mm 3 mps 760 mmHg 34%
22:00 +20°C° 0 mm 2 mps 760 mmHg 35%
23:00 +20°C° 0 mm 2 mps 760 mmHg 35%

10 March, Wednesday

Time Temperature Precipitation Wind Pressure Humidity
00:00 +20°C° 0 mm 2 mps 760 mmHg 35%
01:00 +19°C° 0 mm 2 mps 759 mmHg 37%
02:00 +18°C° 0 mm 2 mps 759 mmHg 38%
03:00 +18°C° 0 mm 2 mps 759 mmHg 39%
04:00 +17°C° 0 mm 2 mps 759 mmHg 40%
05:00 +17°C° 0 mm 3 mps 759 mmHg 40%
06:00 +17°C° 0 mm 3 mps 759 mmHg 41%
07:00 +18°C° 0 mm 3 mps 759 mmHg 38%
08:00 +20°C° 0 mm 4 mps 759 mmHg 35%
09:00 +21°C° 0 mm 4 mps 760 mmHg 32%
10:00 +22°C° 0 mm 5 mps 759 mmHg 28%
11:00 +25°C° 0 mm 5 mps 759 mmHg 25%
12:00 +27°C° 0 mm 6 mps 758 mmHg 21%
13:00 +28°C° 0 mm 6 mps 757 mmHg 19%
14:00 +28°C° 0 mm 6 mps 756 mmHg 17%
15:00 +29°C° 0 mm 5 mps 755 mmHg 14%
16:00 +29°C° 0 mm 5 mps 755 mmHg 15%
17:00 +28°C° 0 mm 4 mps 755 mmHg 16%
18:00 +27°C° 0 mm 3 mps 754 mmHg 16%
19:00 +26°C° 0 mm 4 mps 754 mmHg 18%
20:00 +25°C° 0 mm 5 mps 754 mmHg 20%
21:00 +23°C° 0 mm 6 mps 754 mmHg 21%
22:00 +23°C° 0 mm 6 mps 753 mmHg 22%
23:00 +22°C° 0 mm 7 mps 753 mmHg 23%
Show more